1496761200.53,15349,19.0,73692.8,8.79,5.67,5.73,0,*74
1496761201.76,15350,19.0,73688.8,8.79,5.55,5.55,0,*79
1496761202.98,15351,19.0,73684.8,8.79,5.51,5.55,0,*7C
1496761204.15,15352,19.0,73686.0,8.79,5.45,5.45,0,*7B
1496761205.35,15353,19.0,73686.8,8.79,5.63,5.73,0,*7B
1496761206.58,15354,19.0,73688.8,8.81,5.55,5.67,0,*7B
1496761207.78,15355,19.0,73684.0,8.79,5.55,5.67,0,*7D
1496761209.03,15356,19.0,73684.0,8.81,5.77,5.89,0,*79
1496761210.24,15357,19.0,73690.8,8.79,5.85,5.99,0,*73
1496761211.45,15358,19.0,73688.0,8.79,5.77,5.77,0,*71
1496761212.68,15359,19.0,73684.5,8.79,5.73,5.77,0,*74
1496761213.88,15360,19.0,73686.8,8.79,5.85,5.99,0,*77
1496761215.09,15361,19.0,73684.3,8.79,5.77,5.99,0,*7B
1496761216.29,15362,19.0,73682.0,8.79,5.93,6.11,0,*71
1496761217.48,15363,19.0,73680.0,8.79,5.99,6.11,0,*7A
1496761218.68,15364,19.0,73682.0,8.79,6.11,6.13,0,*7C
1496761219.88,15365,19.0,73686.8,8.81,6.11,6.21,0,*7B
1496761221.09,15366,19.0,73686.3,8.81,6.03,6.11,0,*78
1496761222.3,15367,19.0,73680.5,8.81,6.11,6.11,0,*7A
1496761223.5,15368,19.0,73684.0,8.79,6.11,6.13,0,*70
1496761224.7,15369,19.0,73686.8,8.81,6.11,6.21,0,*77
1496761225.91,15370,19.0,73686.3,8.81,5.99,6.11,0,*7F
1496761227.13,15371,19.0,73686.3,8.85,6.07,6.13,0,*7C
1496761228.39,15372,19.0,73682.3,8.85,6.17,6.35,0,*7A
1496761229.64,15373,19.0,73682.8,8.85,6.17,6.17,0,*7B
1496761230.84,15374,19.0,73680.0,8.87,6.17,6.21,0,*7B
1496761232.07,15375,19.0,73680.0,8.87,6.39,6.43,0,*72
1496761233.29,15376,19.0,73680.3,8.87,6.51,6.53,0,*7E
1496761234.47,15377,19.0,73680.3,8.87,6.21,6.33,0,*7E
1496761235.7,15378,19.0,73684.0,8.89,6.29,6.39,0,*7D
1496761236.91,15379,19.0,73678.8,8.89,6.21,6.33,0,*7E
1496761238.14,15380,19.0,73680.8,8.89,5.93,5.95,0,*7D
1496761239.37,15381,19.0,73676.5,8.89,6.11,6.17,0,*7C
1496761240.56,15382,19.0,73682.3,8.89,6.07,6.21,0,*7D
1496761241.77,15383,19.0,73678.3,8.89,5.99,6.11,0,*7B
1496761242.97,15384,19.0,73680.0,8.89,5.95,5.95,0,*7F
1496761244.19,15385,19.0,73678.3,8.89,6.07,6.17,0,*7F
1496761245.44,15386,19.0,73680.0,8.89,6.39,6.53,0,*71
1496761246.68,15387,19.0,73676.8,8.89,6.53,6.73,0,*7E
1496761247.9,15388,19.0,73678.3,8.91,6.47,6.65,0,*7A
1496761249.14,15389,19.0,73682.8,8.91,6.35,6.43,0,*7A
1496761250.35,15390,19.0,73680.5,8.91,6.33,6.47,0,*70
1496761251.54,15391,19.0,73682.3,8.91,6.21,6.33,0,*71
1496761252.75,15392,19.0,73680.3,8.91,6.33,6.43,0,*76
1496761254.0,15393,19.0,73682.5,8.93,6.57,6.87,0,*7F
1496761255.19,15394,19.0,73684.0,8.95,6.83,6.87,0,*77
1496761256.42,15395,19.0,73678.8,8.95,6.73,6.87,0,*79
1496761257.62,15396,19.0,73680.8,8.95,6.61,6.79,0,*78
1496761258.86,15397,19.0,73684.3,8.97,6.61,6.73,0,*71
1496761260.08,15398,19.0,73682.8,8.99,6.61,6.73,0,*70
1496761261.27,15399,19.0,73686.0,8.99,6.87,7.01,0,*7D
1496761262.49,15400,19.0,73682.5,8.99,6.61,6.73,0,*76
1496761263.7,15401,19.0,73680.0,8.99,6.33,6.51,0,*70
1496761264.92,15402,19.0,73680.3,8.99,6.43,6.73,0,*74
1496761266.14,15403,19.0,73684.8,8.99,6.65,6.87,0,*7A
1496761267.34,15404,19.0,73684.3,8.99,6.65,6.83,0,*79
1496761268.56,15405,19.0,73684.3,9.01,6.91,7.05,0,*7C
1496761269.73,15406,19.0,73682.0,9.03,7.37,7.55,0,*75
1496761270.95,15407,19.0,73682.8,9.05,7.37,7.47,0,*71
1496761272.17,15408,19.0,73686.3,9.05,7.05,7.19,0,*74
1496761273.37,15409,19.0,73684.5,9.09,7.09,7.23,0,*7C
1496761274.55,15410,19.0,73684.0,9.09,7.33,7.51,0,*78
1496761275.79,15411,19.0,73686.3,9.11,7.19,7.29,0,*77
1496761276.97,15412,19.0,73686.0,9.13,7.45,7.59,0,*78
1496761278.18,15413,19.0,73686.0,9.13,7.59,7.69,0,*77
1496761279.41,15414,19.0,73686.0,9.15,7.51,7.61,0,*76
1496761280.64,15415,19.0,73688.8,9.17,7.73,7.83,0,*79
1496761281.87,15416,19.0,73686.8,9.19,7.73,7.79,0,*71
1496761283.08,15417,19.0,73686.5,9.21,7.59,7.77,0,*7D
1496761284.29,15418,19.0,73688.5,9.21,7.59,7.77,0,*72
1496761285.49,15419,19.0,73682.8,9.25,7.95,8.05,0,*7D
1496761286.69,15420,19.0,73686.3,9.25,7.87,7.97,0,*70
1496761287.92,15421,19.0,73684.5,9.27,8.15,8.29,0,*7D
1496761289.14,15422,19.0,73686.0,9.31,8.01,8.13,0,*75
1496761290.39,15423,19.0,73684.3,9.31,7.73,7.87,0,*7C
1496761291.62,15424,19.0,73684.5,9.35,7.79,7.95,0,*76
1496761292.85,15425,19.0,73684.0,9.35,7.65,7.79,0,*78
1496761294.05,15426,19.0,73686.3,9.37,7.91,8.05,0,*76
1496761295.28,15427,19.0,73682.8,9.39,8.41,8.61,0,*79
1496761296.5,15428,19.0,73686.0,9.41,7.97,8.13,0,*78
1496761297.71,15429,19.0,73680.5,9.43,8.01,8.13,0,*7B
1496761298.92,15430,19.0,73680.5,9.43,7.77,7.97,0,*7E
1496761300.12,15431,19.0,73682.3,9.47,8.01,8.13,0,*76
1496761301.3,15432,19.0,73680.8,9.47,8.19,8.27,0,*7B
1496761302.53,15433,19.0,73682.8,9.53,8.29,8.45,0,*78
1496761303.78,15434,19.0,73680.0,9.53,8.33,8.51,0,*71
1496761305.0,15435,19.0,73680.8,9.55,8.41,8.47,0,*74
1496761306.25,15436,19.0,73680.5,9.57,8.33,8.37,0,*77
1496761307.45,15437,19.0,73682.8,9.59,8.51,8.69,0,*77
1496761308.71,15438,19.0,73684.3,9.61,8.75,8.93,0,*70
1496761309.94,15439,19.0,73684.3,9.63,8.93,9.01,0,*71
1496761311.2,15440,19.0,73684.5,9.65,8.55,8.59,0,*7F
1496761312.45,15441,19.0,73684.8,9.69,8.41,8.51,0,*7F
1496761313.7,15442,19.0,73686.5,9.69,8.41,8.59,0,*74
1496761314.93,15443,19.0,73688.8,9.73,8.71,8.87,0,*7E
1496761316.15,15444,19.0,73686.3,9.77,8.69,8.89,0,*7A
1496761317.36,15445,19.0,73688.3,9.79,8.15,8.37,0,*7B
1496761318.57,15446,19.0,73690.3,9.79,8.13,8.27,0,*7F
1496761319.83,15447,19.0,73694.0,9.81,7.95,8.13,0,*7F
1496761321.05,15448,19.0,73690.5,9.85,8.09,8.37,0,*78
1496761322.28,15449,19.0,73688.8,9.85,8.15,8.41,0,*75
1496761323.51,15450,19.0,73690.8,9.85,7.83,8.05,0,*7D
1496761324.74,15451,19.0,73692.3,9.85,7.95,8.19,0,*76
1496761325.97,15452,19.0,73692.3,9.89,7.55,7.91,0,*7A
1496761327.2,15453,19.0,73692.8,9.89,7.55,7.91,0,*7B
1496761328.4,15454,19.0,73694.0,9.93,7.01,7.59,0,*72
1496761329.6,15455,19.0,73692.3,9.95,7.29,7.83,0,*78
1496761330.81,15456,19.0,73694.8,9.95,7.73,8.19,0,*78
1496761332.04,15457,19.0,73698.3,10.01,7.47,7.59,0,*40
1496761333.26,15458,19.0,73698.0,10.01,7.01,6.87,0,*4F
1496761334.46,15459,19.0,73694.8,10.01,5.71,5.63,0,*42
1496761335.68,15460,19.0,73698.8,10.07,4.85,5.11,0,*41
1496761336.92,15461,19.0,73694.8,10.07,4.75,5.15,0,*4B
1496761338.16,15462,19.0,73694.8,10.07,4.53,4.67,0,*48
1496761339.4,15463,19.0,73694.3,10.07,4.67,4.85,0,*42
1496761340.64,15464,19.0,73696.8,10.11,4.33,4.31,0,*4C
1496761341.89,15465,19.0,73694.3,10.07,5.01,5.23,0,*48
1496761343.07,15466,19.0,73692.3,10.09,5.71,5.99,0,*43
1496761344.31,15467,19.0,73690.5,10.11,5.81,6.21,0,*44
1496761345.57,15468,19.0,73692.8,10.11,6.17,6.65,0,*47
1496761346.8,15469,19.0,73690.3,10.11,5.95,6.69,0,*43
1496761348.01,15470,19.0,73696.0,10.13,4.97,5.67,0,*47
1496761349.24,15471,19.0,73692.3,10.11,4.89,5.73,0,*4E
1496761350.46,15472,19.0,73692.3,10.11,4.89,5.71,0,*4F
1496761351.67,15473,19.0,73692.0,10.11,5.15,5.99,0,*4C
1496761352.89,15474,19.0,73688.0,10.11,5.27,6.11,0,*49
1496761354.14,15475,19.0,73688.0,10.07,5.01,6.03,0,*48
1496761355.35,15476,19.0,73692.5,10.11,5.15,6.11,0,*4A
1496761356.56,15477,19.0,73692.3,10.09,4.59,5.99,0,*48
1496761357.79,15478,19.0,73694.5,10.07,4.75,6.07,0,*43
1496761359.03,15479,19.0,73694.3,10.07,4.79,6.03,0,*4A
1496761360.24,15480,19.0,73694.5,10.07,4.85,6.07,0,*4B
1496761361.42,15481,19.0,73696.0,10.09,4.81,6.11,0,*47
1496761362.63,15482,19.0,73694.3,10.11,4.89,6.11,0,*45
1496761363.86,15483,19.0,73692.0,10.07,4.85,5.93,0,*46
1496761365.08,15484,19.0,73698.8,10.07,4.27,5.33,0,*43
1496761366.29,15485,19.0,73694.3,10.03,4.31,5.67,0,*40
1496761367.5,15486,19.0,73694.5,10.03,4.27,5.73,0,*41
1496761368.69,15487,19.0,73700.0,10.05,4.23,5.33,0,*46
1496761369.89,15488,19.0,73696.8,10.03,2.95,4.59,0,*49
1496761371.13,15489,19.0,73690.5,10.01,2.65,4.67,0,*48
1496761372.36,15490,19.0,73690.5,9.99,2.09,4.63,0,*77
1496761373.54,15491,19.0,73686.0,9.99,1.79,4.57,0,*75
1496761374.75,15492,19.0,73692.0,9.95,2.21,5.11,0,*77
1496761375.99,15493,19.0,73690.3,9.95,2.43,5.01,0,*73
1496761377.2,15494,19.0,73686.0,9.95,2.69,5.23,0,*7C
1496761378.44,15495,19.0,73690.5,9.93,3.23,5.23,0,*74
1496761379.67,15496,19.0,73694.8,9.95,2.89,4.79,0,*7E
1496761380.87,15497,19.0,73698.8,9.99,2.55,4.89,0,*7D
1496761382.1,15498,19.0,73692.5,9.95,2.89,4.63,0,*7B
1496761383.36,15499,19.0,73692.5,9.93,3.45,4.75,0,*7A
1496761384.56,15500,19.0,73700.0,9.93,2.99,4.81,0,*70
1496761385.79,15501,19.0,73694.3,9.93,2.51,4.37,0,*78
1496761387.04,15502,19.0,73692.0,9.93,2.89,4.63,0,*7F
1496761388.25,15503,19.0,73696.3,9.91,4.01,5.19,0,*76
1496761389.49,15504,19.0,73698.5,9.89,3.97,5.07,0,*7F
1496761390.72,15505,19.0,73698.0,9.89,2.61,4.93,0,*7A
1496761391.97,15506,19.0,73698.0,9.89,2.73,4.67,0,*71
1496761393.23,15507,19.0,73698.5,9.89,1.71,3.75,0,*75
1496761394.46,15508,19.0,73690.8,9.85,1.83,3.49,0,*74
1496761395.68,15509,19.0,73686.3,9.85,2.99,4.01,0,*76
1496761396.93,15510,19.0,73688.3,9.81,3.53,3.97,0,*75
1496761398.17,15511,19.0,73684.5,9.77,2.77,3.11,0,*74
1496761399.36,15512,19.0,73688.3,9.77,3.59,3.85,0,*77
1496761400.56,15513,19.0,73688.8,9.71,3.37,3.59,0,*79
1496761401.73,15514,19.0,73680.0,9.71,3.25,3.59,0,*7D
1496761402.94,15515,19.0,73672.5,9.67,3.75,3.85,0,*7F
1496761404.1,15516,19.0,73674.5,9.67,3.55,3.55,0,*73
1496761405.3,15517,19.0,73672.8,9.63,3.55,3.45,0,*77
1496761406.53,15518,19.0,73676.5,9.61,3.85,3.79,0,*78
1496761407.75,15519,19.0,73676.3,9.61,3.55,3.33,0,*7A
1496761408.98,15520,19.0,73674.0,9.59,3.41,3.11,0,*7E
1496761410.24,15521,19.0,73680.5,9.57,3.75,3.37,0,*72
1496761411.46,15522,19.0,73686.3,9.57,3.25,2.69,0,*7E
1496761412.67,15523,19.0,73678.8,9.55,3.59,2.81,0,*70
1496761413.89,15524,19.0,73682.5,9.55,2.89,1.85,0,*7C
1496761415.09,15525,19.0,73684.5,9.53,3.25,2.27,0,*77
1496761416.32,15526,19.0,73688.5,9.49,3.41,2.35,0,*7E
1496761417.55,15527,19.0,73694.3,9.49,4.05,2.99,0,*7E
1496761418.8,15528,19.0,73698.0,9.49,2.47,1.37,0,*76
1496761420.02,15529,19.0,73700.0,9.47,1.85,0.71,0,*47
1496761421.24,15530,19.0,73692.0,9.41,1.93,0.97,0,*46
1496761422.5,15531,19.0,73688.0,9.41,2.77,2.05,0,*77
1496761423.7,15532,19.0,73690.3,9.37,3.33,2.61,0,*76
1496761424.89,15533,19.0,73680.5,9.37,3.59,3.07,0,*7A
1496761426.06,15534,19.0,73682.0,9.37,3.93,3.59,0,*70
1496761427.29,15535,19.0,73680.8,9.35,4.01,3.89,0,*72
1496761428.52,15536,19.0,73680.0,9.35,4.11,3.97,0,*7F
1496761429.69,15537,19.0,73678.3,9.33,4.33,4.27,0,*74
1496761430.86,15538,19.0,73678.5,9.33,4.33,4.19,0,*76
1496761432.09,15539,19.0,73676.3,9.31,3.97,3.93,0,*79
1496761433.31,15540,19.0,73678.0,9.27,4.01,4.11,0,*75
1496761434.51,15541,19.0,73676.3,9.27,4.27,4.19,0,*78
1496761435.68,15542,19.0,73678.5,9.25,4.19,4.15,0,*78
1496761436.87,15543,19.0,73672.3,9.23,4.49,4.49,0,*73
1496761438.14,15544,19.0,73672.3,9.23,4.59,4.71,0,*7E
1496761439.35,15545,19.0,73672.5,9.25,5.01,5.11,0,*72
1496761440.6,15546,19.0,73674.0,9.23,5.05,5.05,0,*76
1496761441.86,15547,19.0,73674.3,9.23,4.67,4.71,0,*70
1496761443.12,15548,19.0,73670.8,9.23,4.71,4.67,0,*7F
1496761444.39,15549,19.0,73678.3,9.23,4.71,4.67,0,*7E
1496761445.59,15550,19.0,73674.8,9.21,4.59,4.81,0,*76
1496761446.83,15551,19.0,73672.3,9.21,4.93,4.93,0,*72
1496761448.03,15552,19.0,73674.8,9.19,5.37,5.33,0,*7E
1496761449.2,15553,19.0,73676.3,9.21,5.41,5.41,0,*70
1496761450.38,15554,19.0,73680.5,9.21,5.49,5.49,0,*77
1496761451.61,15555,19.0,73680.5,9.23,5.73,5.67,0,*71
1496761452.85,15556,19.0,73682.3,9.23,5.77,5.85,0,*7A
1496761454.08,15557,19.0,73680.8,9.23,5.67,5.77,0,*77
1496761455.3,15558,19.0,73680.0,9.23,5.67,5.77,0,*78
1496761456.48,15559,19.0,73678.5,9.21,5.63,5.63,0,*7A
1496761457.69,15560,19.0,73678.3,9.21,5.51,5.67,0,*75
1496761458.89,15561,19.0,73676.8,9.21,5.49,5.51,0,*78
1496761460.09,15562,19.0,73680.0,9.23,5.29,5.19,0,*73
1496761461.31,15563,19.0,73680.8,9.23,5.29,5.27,0,*7F
1496761462.53,15564,19.0,73684.8,9.23,5.19,5.19,0,*76
1496761463.72,15565,19.0,73678.8,9.21,5.27,5.29,0,*7B
1496761464.92,15566,19.0,73680.8,9.21,5.59,5.51,0,*7E
1496761466.15,15567,19.0,73680.5,9.19,5.15,5.05,0,*7D
1496761467.4,15568,19.0,73682.5,9.19,4.79,4.67,0,*7C
1496761468.65,15569,19.0,73686.8,9.19,5.27,5.27,0,*72
1496761469.85,15570,19.0,73686.5,9.19,5.33,5.33,0,*7A
1496761471.03,15571,19.0,73676.5,9.17,5.33,5.33,0,*75
1496761472.22,15572,19.0,73682.5,9.17,5.67,5.71,0,*71
1496761473.4,15573,19.0,73684.8,9.17,5.71,5.67,0,*70
1496761474.61,15574,19.0,73684.3,9.17,4.89,4.97,0,*7F
1496761475.79,15575,19.0,73688.3,9.17,5.41,5.41,0,*71
1496761476.99,15576,19.0,73686.3,9.17,5.59,5.55,0,*7E
1496761478.2,15577,19.0,73686.3,9.17,5.07,5.01,0,*75
1496761479.39,15578,19.0,73684.5,9.17,5.19,5.07,0,*73
1496761480.61,15579,19.0,73686.0,9.15,5.45,5.51,0,*7A
1496761481.83,15580,19.0,73686.8,9.17,5.51,5.51,0,*7B
1496761483.05,15581,19.0,73682.5,9.15,5.51,5.45,0,*7D
1496761484.25,15582,19.0,73680.0,9.15,4.89,4.85,0,*77
1496761485.51,15583,19.0,73676.8,9.15,4.97,4.97,0,*7A
1496761486.72,15584,19.0,73680.3,9.15,5.19,5.11,0,*75
1496761487.93,15585,19.0,73680.5,9.15,5.11,5.07,0,*7B
1496761489.12,15586,19.0,73680.0,9.15,5.33,5.29,0,*74
1496761490.33,15587,19.0,73684.8,9.15,5.11,5.19,0,*76
1496761491.55,15588,19.0,73686.3,9.15,4.75,4.89,0,*72
1496761492.73,15589,19.0,73682.8,9.13,5.07,5.15,0,*75
1496761493.97,15590,19.0,73686.3,9.13,5.05,5.27,0,*7E
1496761495.17,15591,19.0,73684.5,9.13,4.45,4.79,0,*70
1496761496.38,15592,19.0,73682.0,9.15,4.81,5.11,0,*72
1496761497.58,15593,19.0,73680.5,9.11,4.45,4.89,0,*7F
1496761498.82,15594,19.0,73680.3,9.11,4.63,5.11,0,*7C
1496761500.05,15595,19.0,73682.3,9.11,4.79,5.33,0,*76
1496761501.29,15596,19.0,73684.5,9.11,4.53,5.01,0,*7C
1496761502.53,15597,19.0,73686.3,9.11,4.41,5.01,0,*7E
1496761503.75,15598,19.0,73684.3,9.11,3.49,3.85,0,*74
1496761504.95,15599,19.0,73678.8,9.11,3.25,3.85,0,*7F
1496761506.15,15600,19.0,73682.0,9.05,2.35,2.95,0,*79
1496761507.37,15601,19.0,73684.3,9.03,2.73,3.45,0,*70
1496761508.59,15602,19.0,73682.3,9.01,2.95,3.67,0,*79
1496761509.82,15603,19.0,73678.0,9.01,3.41,4.11,0,*76
1496761510.99,15604,19.0,73674.5,8.99,3.59,4.23,0,*79
1496761512.2,15605,19.0,73686.3,9.01,4.15,4.85,0,*7B
1496761513.4,15606,19.0,73684.0,8.99,3.71,4.33,0,*70
1496761514.65,15607,19.0,73678.0,8.97,2.05,2.77,0,*7B
1496761515.9,15608,19.0,73682.8,8.97,1.59,2.43,0,*79
1496761517.15,15609,19.0,73680.3,8.93,2.85,3.75,0,*7A
1496761518.4,15610,19.0,73684.3,8.93,2.73,3.41,0,*7C
1496761519.65,15611,19.0,73686.8,8.89,1.97,2.59,0,*77
1496761520.9,15612,19.0,73678.8,8.85,2.73,3.33,0,*7C
1496761522.16,15613,19.0,73680.8,8.85,2.43,3.03,0,*7D
1496761523.38,15614,19.0,73680.8,8.85,3.33,3.85,0,*72
1496761524.58,15615,19.0,73680.8,8.81,3.81,4.27,0,*71
1496761525.78,15616,19.0,73686.0,8.81,3.93,4.49,0,*79
1496761526.99,15617,19.0,73688.0,8.81,4.11,4.53,0,*7E
1496761528.22,15618,19.0,73678.0,8.79,3.53,4.05,0,*74
1496761529.45,15619,19.0,73682.8,8.81,2.39,2.91,0,*74
1496761530.63,15620,19.0,73686.5,8.79,2.95,3.81,0,*7F
1496761531.86,15621,19.0,73684.0,8.77,3.19,4.07,0,*7C
1496761533.09,15622,19.0,73684.5,8.77,2.81,3.89,0,*7E
1496761534.3,15623,19.0,73688.3,8.75,3.25,4.41,0,*71
1496761535.53,15624,19.0,73684.5,8.77,3.19,4.41,0,*7B
1496761536.77,15625,19.0,73688.5,8.77,3.29,4.67,0,*7D
1496761537.99,15626,19.0,73684.3,8.75,3.03,4.49,0,*78
1496761539.2,15627,19.0,73686.0,8.75,2.91,4.45,0,*7F
1496761540.43,15628,19.0,73694.8,8.75,3.07,4.41,0,*7A
1496761541.67,15629,19.0,73692.0,8.75,3.15,4.41,0,*78
1496761542.92,15630,19.0,73690.8,8.75,2.81,4.01,0,*78
1496761544.17,15631,19.0,73692.0,8.75,2.69,3.67,0,*78
1496761545.37,15632,19.0,73694.5,8.75,3.59,4.57,0,*7D
1496761546.57,15633,19.0,73686.3,8.75,3.59,4.45,0,*7F
1496761547.79,15634,19.0,73688.5,8.77,3.49,4.19,0,*72
1496761548.97,15635,19.0,73686.0,8.73,3.93,4.53,0,*7E
1496761550.22,15636,19.0,73686.8,8.75,4.01,4.59,0,*7D
1496761551.42,15637,19.0,73686.3,8.73,4.19,4.67,0,*7E
1496761552.65,15638,19.0,73686.5,8.75,4.79,5.19,0,*79
1496761553.89,15639,19.0,73688.3,8.73,4.75,5.01,0,*7B
1496761555.12,15640,19.0,73688.8,8.73,4.67,5.01,0,*76
1496761556.32,15641,19.0,73686.8,8.73,4.67,4.89,0,*76
1496761557.55,15642,19.0,73686.5,8.73,4.75,5.01,0,*77
1496761558.76,15643,19.0,73686.3,8.73,4.75,5.11,0,*77
1496761559.96,15644,19.0,73686.0,8.75,4.89,5.37,0,*71
1496761561.19,15645,19.0,73684.8,8.75,5.01,5.37,0,*71
1496761562.36,15646,19.0,73682.5,8.73,5.07,5.33,0,*76
1496761563.53,15647,19.0,73680.8,8.73,5.11,5.45,0,*71
1496761564.76,15648,19.0,73680.5,8.75,4.79,5.11,0,*76
1496761566.0,15649,19.0,73682.8,8.75,4.71,5.15,0,*7B
1496761567.26,15650,19.0,73684.5,8.75,4.71,5.05,0,*72
1496761568.5,15651,19.0,73688.0,8.75,4.71,5.11,0,*76
1496761569.71,15652,19.0,73686.8,8.75,4.89,5.19,0,*7A
1496761570.93,15653,19.0,73686.5,8.75,4.93,5.29,0,*73
1496761572.17,15654,19.0,73686.0,8.75,5.01,5.19,0,*7D
1496761573.37,15655,19.0,73688.8,8.75,4.81,5.11,0,*7D
1496761574.6,15656,19.0,73686.8,8.75,4.89,5.27,0,*73
1496761575.83,15657,19.0,73684.3,8.75,4.93,5.37,0,*78
1496761577.04,15658,19.0,73684.3,8.75,4.89,5.19,0,*70
1496761578.24,15659,19.0,73682.8,8.75,4.81,5.19,0,*79
1496761579.49,15660,19.0,73686.0,8.75,4.79,5.05,0,*79
1496761580.75,15661,19.0,73684.0,8.75,4.71,5.05,0,*70
1496761581.99,15662,19.0,73686.3,8.75,4.93,5.19,0,*72
1496761583.19,15663,19.0,73684.3,8.75,5.19,5.41,0,*7D
1496761584.39,15664,19.0,73686.3,8.75,5.37,5.41,0,*76
1496761585.63,15665,19.0,73684.8,8.75,5.27,5.27,0,*76
1496761586.85,15666,19.0,73684.5,8.75,4.79,4.81,0,*72
1496761588.07,15667,19.0,73686.0,8.75,4.79,4.81,0,*73
1496761589.31,15668,19.0,73686.8,8.75,5.05,5.15,0,*7A
1496761590.51,15669,19.0,73682.8,8.73,5.33,5.27,0,*79
1496761591.73,15670,19.0,73676.8,8.75,4.93,4.89,0,*79
1496761593.0,15671,19.0,73678.8,8.77,4.93,4.93,0,*71
1496761594.23,15672,19.0,73682.3,8.75,5.19,5.27,0,*7D
1496761595.39,15673,19.0,73682.8,8.73,5.37,5.45,0,*72
1496761596.64,15674,19.0,73676.0,8.75,5.27,5.27,0,*76
1496761597.84,15675,19.0,73680.5,8.75,5.11,5.15,0,*73
1496761599.07,15676,19.0,73680.5,8.75,4.89,5.05,0,*71
1496761600.27,15677,19.0,73678.3,8.75,5.41,5.41,0,*75
1496761601.46,15678,19.0,73678.0,8.75,5.29,5.29,0,*7A
1496761602.7,15679,19.0,73684.0,8.75,5.27,5.27,0,*7B
1496761603.94,15680,19.0,73678.0,8.75,4.93,5.11,0,*76
1496761605.2,15681,19.0,73676.0,8.75,4.93,5.01,0,*76
1496761606.43,15682,19.0,73678.8,8.73,4.67,4.79,0,*76
1496761607.6,15683,19.0,73678.3,8.73,4.41,4.41,0,*78
1496761608.79,15684,19.0,73678.5,8.73,4.37,4.33,0,*7B
1496761610.02,15685,19.0,73676.8,8.71,4.59,4.53,0,*76
1496761611.23,15686,19.0,73678.0,8.71,4.37,4.37,0,*7F
1496761612.41,15687,19.0,73678.3,8.69,4.37,4.23,0,*72
1496761613.62,15688,19.0,73680.3,8.69,4.93,4.89,0,*73
1496761614.85,15689,19.0,73682.3,8.67,5.07,5.05,0,*75
1496761616.05,15690,19.0,73680.5,8.67,5.15,5.15,0,*7F
1496761617.26,15691,19.0,73680.3,8.67,5.15,5.19,0,*72
1496761618.47,15692,19.0,73680.8,8.67,5.15,5.19,0,*71
1496761619.68,15693,19.0,73684.0,8.69,5.19,5.27,0,*7F
1496761620.89,15694,19.0,73682.0,8.69,5.19,5.27,0,*78
1496761622.09,15695,19.0,73680.8,8.69,5.15,5.27,0,*75
1496761623.29,15696,19.0,73682.0,8.69,5.15,5.27,0,*76
1496761624.52,15697,19.0,73682.8,8.67,5.15,5.27,0,*79
1496761625.73,15698,19.0,73682.8,8.69,4.81,5.01,0,*70
1496761626.96,15699,19.0,73680.3,8.67,5.15,5.27,0,*77
1496761628.19,15700,19.0,73680.5,8.67,5.07,5.27,0,*75
1496761629.42,15701,19.0,73686.8,8.67,5.41,5.51,0,*77
1496761630.62,15702,19.0,73682.0,8.67,5.41,5.59,0,*7C
1496761631.82,15703,19.0,73680.5,8.67,5.49,5.71,0,*7F
1496761633.05,15704,19.0,73684.3,8.67,5.49,5.51,0,*7A
1496761634.28,15705,19.0,73680.3,8.67,5.37,5.51,0,*72
1496761635.51,15706,19.0,73680.8,8.67,5.07,5.27,0,*73
1496761636.73,15707,19.0,73682.5,8.67,5.49,5.51,0,*79
1496761637.91,15708,19.0,73676.0,8.65,5.33,5.37,0,*79
1496761639.08,15709,19.0,73678.0,8.65,5.45,5.45,0,*7C
1496761640.26,15710,19.0,73678.8,8.65,5.49,5.59,0,*75
1496761641.47,15711,19.0,73680.5,8.65,5.71,5.81,0,*7A
1496761642.65,15712,19.0,73684.5,8.65,5.59,5.71,0,*7C
1496761643.83,15713,19.0,73684.0,8.65,5.23,5.33,0,*76
1496761645.01,15714,19.0,73682.3,8.65,5.15,5.15,0,*70
1496761646.26,15715,19.0,73686.3,8.65,5.01,5.01,0,*71
1496761647.44,15716,19.0,73686.8,8.65,5.11,5.15,0,*76
1496761648.62,15717,19.0,73684.0,8.65,4.85,4.85,0,*73
1496761649.86,15718,19.0,73686.0,8.57,4.93,4.93,0,*7D
1496761651.06,15719,19.0,73684.0,8.59,5.07,5.07,0,*72
1496761652.24,15720,19.0,73692.5,8.57,5.37,5.49,0,*7F
1496761653.44,15721,19.0,73690.3,8.59,5.41,5.45,0,*7D
1496761654.63,15722,19.0,73690.0,8.57,5.27,5.37,0,*75
1496761655.84,15723,19.0,73690.8,8.57,5.07,5.05,0,*77
1496761657.07,15724,19.0,73684.5,8.57,4.97,4.93,0,*76
1496761658.31,15725,19.0,73680.0,8.57,4.79,4.71,0,*7B
1496761659.55,15726,19.0,73682.0,8.53,5.01,5.01,0,*74
1496761660.77,15727,18.94,73676.0,8.53,5.27,5.27,0,*75
1496761661.97,15728,19.0,73682.5,8.51,5.49,5.49,0,*78
1496761663.19,15729,19.0,73688.8,8.53,5.55,5.55,0,*7B
1496761664.4,15730,19.0,73686.8,8.53,5.27,5.15,0,*72
1496761665.61,15731,19.0,73684.5,8.53,4.89,4.93,0,*79
1496761666.84,15732,19.0,73682.8,8.51,4.79,4.85,0,*70
1496761668.07,15733,19.0,73684.0,8.49,4.75,4.71,0,*7F
1496761669.3,15734,19.0,73688.5,8.49,4.75,4.63,0,*7B
1496761670.48,15735,19.0,73684.5,8.49,4.85,4.89,0,*71
1496761671.71,15736,19.0,73688.0,8.49,4.75,4.71,0,*7A
1496761672.92,15737,19.0,73688.8,8.45,4.57,4.59,0,*7D
1496761674.1,15738,19.0,73688.3,8.45,4.57,4.49,0,*73
1496761675.34,15739,19.0,73690.3,8.45,4.71,4.79,0,*75
1496761676.54,15740,19.0,73694.8,8.41,4.41,4.41,0,*77
1496761677.71,15741,19.0,73702.8,8.39,4.27,4.19,0,*74
1496761678.91,15742,19.0,73700.8,8.35,3.85,3.79,0,*75
1496761680.14,15743,19.0,73698.5,8.33,4.01,3.93,0,*7D
1496761681.31,15744,19.0,73698.5,8.31,4.45,4.45,0,*74
1496761682.5,15745,19.0,73694.3,8.33,4.57,4.45,0,*74
1496761683.74,15746,19.0,73692.0,8.31,5.01,5.01,0,*76
1496761684.97,15747,19.0,73690.8,8.29,5.07,5.01,0,*78
1496761686.15,15748,19.0,73688.8,8.27,5.23,5.23,0,*7F
1496761687.33,15749,19.0,73692.0,8.31,5.49,5.59,0,*78
1496761688.55,15750,19.0,73692.3,8.29,5.55,5.59,0,*74
1496761689.76,15751,19.0,73688.8,8.29,5.59,5.67,0,*74
1496761690.96,15752,19.0,73690.8,8.29,5.67,5.71,0,*7D
1496761692.17,15753,19.0,73690.0,8.29,5.59,5.59,0,*7B
1496761693.34,15754,19.0,73688.5,8.31,5.33,5.33,0,*75
1496761694.54,15755,19.0,73688.3,8.29,5.29,5.23,0,*77
1496761695.75,15756,19.0,73686.8,8.29,5.59,5.71,0,*74
1496761697.0,15757,19.0,73686.5,8.29,5.89,5.93,0,*74
1496761698.25,15758,19.0,73688.0,8.29,5.81,5.81,0,*70
1496761699.49,15759,19.0,73688.3,8.29,5.93,5.99,0,*7B
1496761700.69,15760,19.0,73690.5,8.31,6.03,6.13,0,*73
1496761701.92,15761,19.0,73690.5,8.29,6.13,6.21,0,*7B
1496761703.14,15762,19.0,73694.0,8.29,6.13,6.29,0,*70
1496761704.34,15763,19.0,73688.3,8.31,6.17,6.29,0,*7C
1496761705.53,15764,19.0,73694.5,8.31,6.07,6.17,0,*77
1496761706.76,15765,19.0,73688.8,8.33,5.93,6.07,0,*7B
1496761707.99,15766,19.0,73690.3,8.33,5.85,6.03,0,*7B
1496761709.22,15767,19.0,73690.0,8.33,5.93,5.95,0,*71
1496761710.47,15768,19.0,73686.3,8.33,5.73,5.85,0,*71
1496761711.71,15769,19.0,73690.3,8.33,5.73,5.85,0,*70
1496761712.94,15770,19.0,73686.3,8.33,5.81,5.95,0,*74
1496761714.16,15771,19.0,73684.5,8.35,5.73,5.89,0,*73
1496761715.38,15772,19.0,73690.0,8.31,5.81,5.85,0,*75
1496761716.6,15773,19.0,73684.5,8.35,5.85,5.77,0,*79
1496761717.8,15774,19.0,73684.0,8.35,5.67,5.73,0,*76
1496761719.0,15775,19.0,73684.5,8.33,5.63,5.71,0,*77
1496761720.23,15776,19.0,73690.0,8.33,5.73,5.95,0,*7F
1496761721.45,15777,19.0,73690.0,8.33,5.63,5.73,0,*77
1496761722.65,15778,19.0,73686.5,8.33,5.59,5.71,0,*73
1496761723.9,15779,19.0,73684.3,8.33,5.81,5.93,0,*7B
1496761725.12,15780,19.0,73686.8,8.35,5.73,5.85,0,*71
1496761726.32,15781,19.0,73686.0,8.33,5.63,5.71,0,*7C
1496761727.52,15782,19.0,73686.0,8.35,5.55,5.67,0,*7B
1496761728.72,15783,19.0,73684.0,8.33,5.59,5.71,0,*77
1496761729.92,15784,19.0,73684.0,8.35,5.55,5.67,0,*7D
1496761731.12,15785,19.0,73686.3,8.33,5.33,5.33,0,*7B
1496761732.33,15786,19.0,73688.8,8.35,4.93,5.07,0,*72
1496761733.53,15787,19.0,73686.3,8.33,5.37,5.49,0,*70
1496761734.72,15788,19.0,73686.3,8.31,5.15,5.27,0,*75
1496761735.89,15789,19.0,73690.0,8.31,5.41,5.49,0,*7D
1496761737.09,15790,19.0,73690.5,8.29,5.37,5.45,0,*71
1496761738.28,15791,19.0,73688.3,8.31,5.41,5.51,0,*7D
1496761739.48,15792,19.0,73684.5,8.29,5.33,5.29,0,*7D